Wind_Speed
21 18 19 18 16 17 17 16 14 13 17 21 23 30 31 33 35 36 36 36 36 35 34 33 33 33 33 33 33 33 33 31 30 31 32 34 35 36 39 43 47 51 54 55
15 12 10 7 3 2 5 7 9 12 17 21 28 31 29 29 30 31 32 33 33 32 32 32 31 31 30 30 30 29 28 28 29 30 31 33 35 38 42 46 50 52 54 56
13 12 12 10 7 6 8 9 12 17 22 27 29 27 26 24 25 27 28 29 29 28 28 28 27 27 26 25 24 24 24 26 27 29 30 33 37 41 45 49 51 54 57 60
13 13 13 9 8 9 11 14 18 22 25 28 27 25 22 21 21 21 22 21 21 21 20 20 20 19 19 19 19 20 22 24 26 29 33 37 41 44 48 51 54 56 59 62
14 15 14 11 11 13 15 17 21 23 24 25 24 22 20 18 17 16 16 15 15 14 14 13 14 14 15 16 18 20 22 25 28 32 36 40 43 47 50 52 54 57 60 63
11 13 16 16 17 17 19 19 19 18 19 20 20 17 16 14 13 12 13 12 12 11 11 11 12 13 14 16 18 21 24 28 32 35 39 42 45 48 50 52 55 58 61 61
8 9 12 14 15 15 15 15 15 14 13 13 13 12 12 12 11 11 11 11 11 11 11 12 13 14 16 18 21 24 28 31 34 37 40 43 45 48 50 53 56 58 58 59
6 7 8 9 10 10 9 9 9 9 9 9 10 10 11 11 12 12 12 12 12 12 13 14 15 17 19 22 25 28 30 33 36 38 41 43 46 48 52 54 54 55 57 60
7 6 6 7 8 8 8 8 8 8 9 11 12 12 13 13 14 14 13 13 13 14 15 16 18 20 23 25 27 29 31 34 36 38 41 44 47 49 51 52 53 55 58 62
13 11 9 8 7 6 7 7 8 8 9 10 12 13 14 14 14 14 14 14 14 15 16 18 19 21 23 25 27 30 32 35 37 40 42 45 47 48 49 51 53 57 61 66
18 15 13 10 8 6 5 5 5 6 7 8 9 11 12 13 14 14 14 14 14 14 15 16 18 21 24 27 29 32 34 36 38 41 43 45 46 47 49 52 56 60 65 70
20 17 15 12 9 7 6 5 5 5 6 6 7 8 10 11 12 13 12 12 13 14 16 19 21 24 27 29 31 33 35 37 39 41 43 44 45 48 51 55 60 65 71 76
18 17 15 13 10 9 8 8 7 7 8 8 8 8 8 9 10 10 11 12 14 17 20 23 26 28 29 31 32 34 36 38 40 42 42 43 45 49 54 60 65 71 76 81
17 17 16 15 14 12 11 10 10 10 10 10 9 8 8 8 9 10 13 15 18 22 25 27 29 30 31 32 34 35 37 39 40 40 41 44 48 52 58 63 68 74 79 85
18 17 17 17 16 15 13 12 12 12 11 10 9 9 9 9 11 14 17 20 23 26 28 29 30 31 32 33 35 37 37 38 38 40 43 47 52 57 62 67 73 78 83 87
17 16 15 15 14 14 13 12 12 11 11 10 10 10 12 14 17 20 22 25 27 28 29 29 30 31 32 34 35 35 36 37 39 42 47 52 57 61 66 72 77 82 86 85
12 12 12 12 12 12 12 12 12 12 12 12 13 15 18 20 23 24 26 28 28 28 28 29 29 31 32 33 34 34 35 38 42 47 51 56 61 66 70 75 81 85 84 77
10 10 11 11 12 12 13 14 14 14 15 17 19 21 23 24 26 27 27 27 27 27 27 28 30 31 32 32 33 34 38 42 47 51 56 60 65 70 75 80 84 83 75 64
12 12 12 13 13 14 15 16 17 18 20 21 23 24 25 26 26 26 26 26 26 27 27 29 30 30 30 31 34 38 42 46 51 55 60 65 69 74 80 84 82 74 63 54
15 15 16 16 16 17 18 19 21 22 23 24 25 25 25 26 26 26 26 26 26 27 29 29 29 29 31 34 38 42 46 50 55 60 64 69 73 79 83 82 74 63 53 44
18 19 19 19 20 20 21 22 23 24 24 25 25 25 25 25 25 25 26 27 27 28 28 27 28 31 34 38 42 46 51 55 60 64 68 73 78 82 81 74 63 53 43 33
20 21 22 23 23 23 24 24 24 25 25 24 24 25 25 25 26 26 27 27 27 26 27 28 31 34 38 42 46 51 55 60 64 68 73 78 82 81 74 64 53 43 33 21
21 21 22 23 23 23 24 24 24 24 24 24 24 25 25 26 27 27 27 25 25 26 28 31 34 38 42 47 51 55 59 63 67 72 78 82 81 74 64 54 44 33 21 10
21 22 22 23 23 23 23 23 24 24 24 24 25 25 26 27 27 26 24 24 26 28 31 34 37 42 47 51 55 59 63 67 72 78 82 81 74 65 55 45 35 22 9 3
23 23 23 23 23 23 23 23 23 24 24 25 25 26 26 26 24 23 24 26 28 31 34 37 42 47 51 55 58 62 66 71 77 82 82 75 66 57 47 36 22 9 4 10
24 25 25 24 24 23 23 23 24 24 25 25 25 25 24 23 23 24 26 29 31 34 38 43 47 51 54 58 61 65 70 76 82 83 77 67 57 47 35 21 7 5 13 16
27 27 26 26 25 25 25 25 25 25 25 24 24 23 23 24 25 27 29 32 36 39 43 47 50 54 57 60 63 68 75 81 82 78 68 57 46 32 18 5 7 14 17 17
Wind_Direction
338 327 307 297 283 267 257 251 241 208 188 167 162 167 173 180 186 192 197 202 206 211 216 222 228 233 237 241 245 248 252 257 264 271 277 282 285 289 293 296 298 299 301 303
11 3 352 348 331 248 220 203 182 174 157 148 151 160 168 175 183 191 196 201 205 210 216 222 228 232 236 240 244 249 255 262 269 275 280 285 290 294 296 297 299 302 303 305
30 25 28 39 64 102 122 131 136 135 136 144 149 158 162 168 176 184 191 197 203 209 216 222 226 230 235 240 248 256 263 269 274 279 285 290 294 296 297 299 301 303 304 306
42 41 37 48 81 107 118 124 126 130 138 144 149 151 155 162 169 175 183 191 199 207 213 219 225 232 240 249 257 264 269 275 281 287 291 293 295 297 299 301 302 304 305 306
56 61 64 75 96 113 122 126 131 135 138 139 140 142 146 154 162 170 177 186 196 205 214 224 234 243 251 258 264 270 277 283 287 290 292 295 297 299 300 302 303 304 305 306
71 75 79 91 100 113 122 123 128 132 135 136 137 141 151 162 173 182 190 202 212 220 227 235 244 251 258 265 272 278 283 287 289 292 294 296 298 299 301 302 304 305 306 307
100 97 96 103 110 119 123 125 133 134 136 142 151 161 169 177 188 199 208 217 225 231 239 248 256 262 268 274 279 283 286 289 291 293 295 297 298 300 302 303 304 306 308 309
147 137 133 136 136 138 143 151 160 167 175 183 192 195 197 202 207 212 219 226 233 242 250 257 263 268 273 278 282 285 288 290 292 294 296 298 300 301 302 304 306 308 309 310
206 192 179 171 168 170 176 181 191 203 211 218 220 220 218 217 218 223 227 231 239 248 255 262 268 274 278 282 285 287 290 292 294 296 298 300 301 303 305 307 308 309 310 311
218 214 208 201 194 192 194 197 201 208 215 220 223 226 227 226 227 230 235 241 248 255 262 269 275 280 283 287 289 291 293 295 296 298 300 302 304 306 307 308 309 310 312 314
222 219 215 216 217 217 214 213 217 221 225 228 230 231 233 234 236 239 243 250 256 261 268 277 284 289 291 292 293 294 295 297 299 301 303 305 306 308 308 309 311 313 315 317
224 223 224 230 235 235 230 234 239 243 243 244 245 241 237 238 240 242 247 254 261 270 280 287 291 293 294 294 295 296 298 301 303 304 306 307 308 309 311 313 315 317 319 320
225 226 227 230 231 230 231 241 247 250 250 251 253 251 245 244 244 249 258 267 275 283 288 291 293 294 295 296 298 300 302 304 306 306 307 308 310 313 315 317 319 320 320 321
228 229 231 233 236 238 240 248 251 251 252 251 251 248 246 248 256 267 274 279 284 288 291 294 296 297 298 300 302 303 305 306 307 307 310 313 315 317 318 319 320 320 321 322
232 235 238 242 244 243 245 249 247 246 243 241 241 245 251 260 272 279 283 286 289 292 295 297 298 298 300 302 304 305 306 307 309 312 315 317 319 320 320 321 321 322 322 322
234 238 241 242 240 238 239 238 235 230 228 235 244 251 262 272 279 284 287 290 292 295 296 297 298 300 302 304 306 307 308 311 314 317 319 319 320 321 321 322 322 323 323 323
225 227 230 230 228 229 229 227 225 227 236 247 256 265 273 279 284 287 290 292 294 295 296 297 300 303 305 307 308 311 314 316 318 319 320 320 321 322 323 323 323 323 324 324
216 216 215 217 221 224 225 229 235 243 252 261 270 276 281 285 288 291 292 293 294 296 298 301 304 307 308 310 312 315 318 319 320 321 321 322 323 323 324 324 324 324 324 324
215 213 215 220 225 232 239 246 253 260 267 273 279 283 286 288 290 291 293 295 297 299 302 305 307 308 310 313 316 318 320 321 322 323 323 323 324 324 324 324 324 324 324 324
224 225 228 233 240 246 253 259 265 270 274 278 282 285 287 288 290 292 295 297 300 303 305 306 308 310 313 316 318 320 321 323 324 324 324 324 324 324 324 324 324 324 323 323
232 235 240 246 252 258 263 267 271 274 277 280 282 285 287 289 291 294 297 300 302 304 305 306 309 313 317 319 320 322 323 324 325 325 324 325 325 324 324 324 324 323 323 322
237 242 247 252 257 262 266 269 272 274 277 279 281 283 286 289 292 295 298 301 302 303 305 309 313 317 319 321 322 324 325 325 325 325 325 325 325 325 325 324 323 322 321 319
242 245 250 254 258 262 265 268 271 273 275 276 278 282 286 289 293 296 298 300 302 305 309 313 317 319 321 323 324 325 326 326 325 325 325 325 326 326 325 324 323 321 318 309
245 248 251 255 258 261 263 266 268 269 272 275 280 284 287 290 293 296 298 302 305 309 313 317 319 321 322 324 325 326 327 326 326 326 326 327 327 326 325 324 322 319 307 211
248 251 254 256 258 260 262 264 267 270 274 278 281 284 286 289 292 296 301 304 308 312 316 319 321 322 324 325 326 327 327 327 327 327 327 327 327 326 325 324 321 309 189 159
249 251 254 256 258 260 262 264 267 270 273 276 279 281 284 288 293 299 303 307 310 314 318 320 322 324 325 327 327 327 327 327 327 328 328 328 327 326 326 326 320 161 154 151
249 251 253 255 257 258 260 262 264 267 270 272 275 278 283 289 296 301 305 309 313 316 319 321 324 326 327 327 327 327 328 328 328 329 328 328 327 328 330 341 140 146 148 146
Height
5553 5549 5545 5542 5541 5540 5540 5542 5544 5548 5552 5557 5564 5573 5581 5590 5598 5607 5615 5622 5629 5635 5641 5646 5650 5653 5655 5658 5659 5660 5660 5660 5660 5660 5660 5658 5656 5654 5651 5647 5642 5636 5630 5623
5553 5549 5545 5542 5541 5541 5542 5544 5546 5549 5553 5559 5565 5574 5582 5590 5599 5606 5613 5620 5626 5631 5636 5641 5644 5647 5650 5651 5653 5653 5654 5654 5654 5653 5652 5650 5648 5645 5641 5636 5631 5625 5618 5611
5556 5552 5549 5548 5546 5546 5546 5548 5551 5554 5560 5564 5571 5578 5585 5592 5599 5606 5612 5618 5623 5628 5632 5636 5639 5642 5644 5646 5647 5648 5648 5648 5647 5646 5644 5642 5639 5635 5631 5625 5620 5613 5607 5599
5560 5558 5555 5556 5553 5552 5552 5554 5556 5560 5565 5570 5576 5582 5589 5595 5601 5606 5612 5617 5622 5626 5629 5632 5635 5637 5639 5640 5641 5641 5641 5641 5639 5638 5636 5633 5630 5625 5620 5615 5609 5602 5594 5586
5565 5563 5562 5561 5559 5559 5560 5562 5564 5568 5572 5576 5581 5587 5593 5598 5603 5608 5612 5616 5620 5623 5626 5628 5631 5632 5634 5635 5635 5635 5635 5634 5632 5630 5628 5624 5620 5615 5610 5604 5597 5590 5582 5574
5570 5569 5568 5569 5568 5568 5571 5572 5574 5577 5580 5583 5587 5592 5597 5600 5604 5608 5612 5615 5618 5620 5623 5625 5626 5628 5629 5629 5629 5629 5628 5626 5624 5622 5619 5615 5610 5605 5599 5593 5585 5578 5569 5561
5574 5574 5575 5575 5575 5576 5579 5580 5581 5583 5586 5589 5591 5595 5598 5601 5604 5607 5610 5613 5615 5617 5619 5621 5622 5623 5623 5623 5623 5622 5621 5619 5616 5613 5610 5605 5600 5595 5588 5582 5574 5566 5558 5548
5576 5577 5580 5579 5579 5581 5582 5583 5584 5586 5588 5590 5593 5595 5598 5600 5603 5605 5608 5610 5612 5614 5615 5616 5617 5618 5618 5617 5616 5615 5613 5611 5608 5604 5600 5595 5590 5584 5578 5570 5562 5554 5545 5535
5577 5580 5579 5579 5581 5582 5583 5584 5586 5587 5589 5591 5592 5594 5596 5598 5600 5602 5604 5606 5608 5610 5611 5612 5612 5612 5612 5611 5609 5607 5605 5602 5599 5595 5590 5585 5579 5573 5566 5558 5550 5542 5533 5523
5574 5576 5577 5578 5580 5581 5583 5584 5585 5587 5589 5590 5591 5593 5594 5596 5598 5599 5601 5603 5605 5606 5606 5607 5607 5606 5605 5604 5602 5600 5597 5594 5590 5586 5581 5575 5568 5561 5554 5546 5538 5529 5520 5510
5571 5574 5575 5577 5578 5580 5581 5582 5584 5586 5587 5588 5589 5591 5592 5594 5595 5597 5599 5600 5601 5602 5602 5602 5601 5600 5599 5597 5595 5592 5589 5585 5581 5576 5570 5564 5557 5550 5543 5535 5526 5517 5507 5495
5570 5572 5574 5576 5577 5578 5580 5581 5582 5583 5585 5586 5587 5588 5589 5591 5593 5594 5595 5596 5597 5597 5597 5597 5596 5594 5592 5590 5587 5584 5580 5576 5571 5566 5560 5554 5547 5539 5531 5523 5512 5501 5489 5476
5567 5569 5572 5573 5575 5576 5578 5579 5580 5581 5583 5584 5585 5586 5587 5588 5590 5591 5592 5593 5593 5593 5593 5591 5590 5588 5585 5582 5579 5576 5572 5567 5562 5556 5550 5543 5537 5529 5520 5509 5496 5484 5472 5458
5565 5567 5569 5571 5573 5574 5576 5577 5578 5579 5580 5582 5583 5584 5585 5586 5587 5588 5589 5590 5589 5588 5587 5585 5583 5580 5577 5575 5571 5567 5563 5558 5552 5546 5540 5533 5526 5517 5508 5497 5486 5471 5456 5441
5562 5564 5566 5568 5569 5571 5573 5574 5576 5577 5578 5579 5581 5582 5583 5584 5585 5585 5585 5585 5584 5582 5580 5578 5575 5573 5570 5567 5563 5558 5553 5548 5542 5536 5530 5522 5513 5504 5493 5482 5470 5456 5442 5426
5558 5560 5562 5564 5566 5568 5570 5571 5573 5574 5576 5577 5578 5580 5580 5581 5581 5581 5580 5579 5577 5575 5573 5571 5568 5566 5563 5559 5554 5549 5544 5539 5533 5526 5519 5510 5501 5491 5479 5467 5453 5439 5424 5410
5555 5557 5559 5561 5563 5565 5567 5569 5571 5573 5574 5575 5576 5577 5577 5577 5576 5575 5574 5572 5570 5568 5566 5564 5561 5558 5554 5550 5545 5540 5535 5529 5523 5515 5507 5498 5488 5477 5464 5451 5437 5422 5407 5392
5554 5556 5558 5560 5562 5564 5565 5567 5569 5570 5571 5572 5572 5572 5572 5571 5570 5568 5567 5565 5563 5561 5559 5556 5553 5549 5545 5541 5536 5531 5526 5519 5512 5504 5495 5485 5474 5462 5449 5436 5421 5407 5393 5380
5552 5554 5556 5558 5560 5562 5563 5565 5566 5567 5567 5567 5567 5567 5566 5565 5563 5562 5560 5558 5556 5554 5552 5548 5545 5541 5537 5533 5528 5523 5516 5509 5501 5492 5482 5471 5459 5447 5434 5420 5406 5392 5380 5370
5549 5551 5553 5555 5557 5559 5560 5561 5561 5562 5562 5561 5561 5560 5559 5558 5556 5555 5553 5552 5550 5547 5544 5540 5537 5533 5529 5525 5519 5513 5506 5498 5489 5479 5468 5457 5444 5432 5418 5404 5390 5379 5369 5362
5546 5548 5549 5551 5552 5554 5555 5555 5555 5555 5555 5555 5554 5553 5552 5551 5550 5549 5547 5545 5543 5540 5537 5533 5530 5526 5521 5516 5510 5503 5495 5487 5477 5466 5455 5443 5430 5416 5401 5387 5376 5367 5360 5354
5540 5542 5544 5545 5546 5547 5548 5548 5549 5549 5548 5548 5548 5547 5546 5545 5544 5542 5540 5538 5536 5533 5530 5526 5522 5518 5513 5507 5500 5492 5484 5475 5464 5452 5440 5428 5414 5399 5385 5373 5363 5356 5351 5347
5534 5536 5537 5539 5540 5541 5541 5542 5542 5542 5542 5542 5541 5541 5540 5539 5538 5536 5534 5532 5529 5526 5523 5519 5515 5509 5504 5497 5490 5482 5472 5461 5450 5438 5425 5411 5396 5383 5370 5360 5353 5347 5344 5342
5528 5530 5531 5532 5534 5534 5535 5535 5536 5536 5536 5536 5535 5535 5534 5533 5532 5530 5528 5526 5523 5520 5516 5512 5506 5501 5494 5487 5479 5470 5459 5448 5436 5423 5409 5394 5380 5367 5357 5349 5343 5340 5338 5339
5522 5524 5525 5526 5527 5528 5528 5529 5529 5530 5530 5530 5529 5529 5528 5527 5526 5524 5522 5520 5516 5513 5508 5503 5498 5491 5484 5476 5467 5457 5446 5435 5422 5408 5393 5379 5366 5355 5346 5340 5336 5334 5335 5338
5516 5517 5519 5520 5521 5522 5522 5523 5523 5524 5524 5523 5523 5523 5522 5521 5520 5518 5516 5513 5509 5505 5500 5495 5489 5482 5474 5465 5455 5445 5433 5421 5407 5392 5378 5365 5354 5345 5338 5333 5331 5333 5335 5339
5509 5510 5511 5513 5514 5515 5516 5516 5517 5517 5517 5517 5517 5517 5516 5515 5513 5511 5508 5505 5501 5497 5491 5485 5479 5472 5463 5454 5444 5432 5420 5407 5392 5378 5365 5355 5345 5338 5333 5331 5332 5334 5338 5342